Weather History for Oakland, MD

Change the Weather History Date:

Thursday, December 20, 2012

  Actual Average (KMGW) Record (KMGW)
Temperature  
Mean Temperature 32 °F 34 °F  
Max Temperature 33 °F 41 °F 64 °F (1957)
Min Temperature 32 °F 26 °F 0 °F (1963)
Degree Days  
Heating Degree Days 32 32  
Month to date heating degree days 579  
Since 1 July heating degree days 1627  
Cooling Degree Days 0 0  
Month to date cooling degree days 0  
Year to date cooling degree days 814  
Moisture  
Dew Point 33 °F    
Average Humidity 100    
Maximum Humidity 100    
Minimum Humidity 100    
Precipitation  
Precipitation 0.00 in 0.09 in 0.83 in (1973)
Month to date precipitation 1.94  
Year to date precipitation 40.86  
Sea Level Pressure  
Sea Level Pressure 29.78 in    
Wind  
Wind Speed 16 mph (SE)    
Max Wind Speed 32 mph    
Max Gust Speed 40 mph    
Visibility 4 miles    
Events Fog    
T = Trace of Precipitation, MM = Missing Value Source: NWS Daily Summary

Daily Weather History Graph

Daily Weather History Graph

Search for Another Location

Airport:

Trip Planner

Search our weather history database for the weather conditions in past years. The results will help you decide how hot, cold, wet, or windy it might be!

Date:

Astronomy

Dec. 20, 2012 Rise Set
Actual Time 7:34 AM EST 4:56 PM EST
Civil Twilight 7:03 AM EST 5:26 PM EST
Nautical Twilight 6:29 AM EST 6:00 PM EST
Astronomical Twilight 5:57 AM EST 6:33 PM EST
Moon 12:12 PM EST (12/20) 12:20 AM EST (12/20)
Length of Visible Light 10h 22m
Length of Day
9h 22m
First Quarter, 55% of the Moon is Illuminated
Dec 20
First Quarter
Dec 28
Full
Jan 4
Last Quarter
Jan 11
New
Jan 18
First Quarter

Hourly Weather History & Observations

Time (EST) Temp. Windchill Dew Point Humidity Pressure Visibility Wind Dir Wind Speed Gust Speed Precip Events Conditions
12:00 AM 32.0 °F 28.7 °F 32.0 °F 100% 30.08 in 3.0 mi SSE 3.5 mph - N/A   Clear
12:20 AM 32.0 °F 28.7 °F 32.0 °F 100% 30.09 in 4.0 mi SSE 3.5 mph - N/A   Clear
12:45 AM 32.0 °F 26.4 °F 32.0 °F 100% 30.08 in 5.0 mi SE 5.8 mph - N/A   Clear
1:05 AM 32.0 °F 24.2 °F 32.0 °F 100% 30.07 in 7.0 mi SE 9.2 mph - N/A   Clear
1:25 AM 32.0 °F 24.2 °F 32.0 °F 100% 30.08 in 7.0 mi SSE 9.2 mph - N/A   Clear
1:45 AM 32.0 °F 24.8 °F 32.0 °F 100% 30.08 in 10.0 mi SE 8.1 mph - N/A   Clear
2:10 AM 32.0 °F 22.1 °F 32.0 °F 100% 30.06 in 10.0 mi ESE 13.8 mph - N/A   Clear
2:30 AM 32.0 °F 22.1 °F 32.0 °F 100% 30.06 in 5.0 mi SE 13.8 mph - N/A   Clear
2:50 AM 32.0 °F 21.2 °F 32.0 °F 100% 30.06 in 5.0 mi SE 16.1 mph 19.6 mph N/A   Clear
3:10 AM 32.0 °F 22.1 °F 32.0 °F 100% 30.05 in 5.0 mi SE 13.8 mph - N/A   Clear
3:55 AM 32.0 °F 20.8 °F 32.0 °F 100% 30.04 in 5.0 mi SE 17.3 mph 23.0 mph N/A   Clear
4:15 AM 32.0 °F 20.1 °F 32.0 °F 100% 30.04 in 5.0 mi SE 19.6 mph 25.3 mph N/A   Clear
4:35 AM 32.0 °F 20.5 °F 32.0 °F 100% 30.04 in 5.0 mi SE 18.4 mph 24.2 mph N/A   Clear
5:00 AM 32.0 °F 20.5 °F 32.0 °F 100% 30.03 in 5.0 mi SE 18.4 mph 25.3 mph N/A   Clear
5:20 AM 32.0 °F 20.5 °F 32.0 °F 100% 30.02 in 4.0 mi SE 18.4 mph 25.3 mph N/A   Clear
5:40 AM 32.0 °F 21.2 °F 32.0 °F 100% 30.01 in 4.0 mi SE 16.1 mph - N/A   Clear
6:05 AM 32.0 °F 21.2 °F 32.0 °F 100% 30.01 in 5.0 mi SE 16.1 mph 20.7 mph N/A   Clear
6:25 AM 32.0 °F 21.6 °F 32.0 °F 100% 30.00 in 7.0 mi SE 15.0 mph 21.9 mph N/A   Clear
6:45 AM 32.0 °F 21.2 °F 32.0 °F 100% 30.00 in 7.0 mi ESE 16.1 mph 21.9 mph N/A   Clear
7:05 AM 32.0 °F 20.8 °F 32.0 °F 100% 29.98 in 7.0 mi ESE 17.3 mph 23.0 mph N/A   Clear
7:30 AM 32.0 °F 21.6 °F 32.0 °F 100% 29.97 in 7.0 mi SE 15.0 mph 21.9 mph N/A   Clear
7:50 AM 32.0 °F 21.2 °F 32.0 °F 100% 29.96 in 7.0 mi ESE 16.1 mph 23.0 mph N/A   Clear
8:10 AM 32.0 °F 21.2 °F 32.0 °F 100% 29.95 in 5.0 mi SE 16.1 mph 25.3 mph N/A   Clear
8:30 AM 32.0 °F 19.8 °F 32.0 °F 100% 29.94 in 5.0 mi SE 20.7 mph 27.6 mph N/A   Clear
8:50 AM 32.0 °F 19.5 °F 32.0 °F 100% 29.91 in 7.0 mi SE 21.9 mph 32.2 mph N/A   Clear
9:15 AM 32.0 °F 19.5 °F 32.0 °F 100% 29.90 in 5.0 mi SE 21.9 mph 28.8 mph N/A   Clear
9:35 AM 32.0 °F 19.8 °F 32.0 °F 100% 29.88 in 5.0 mi ESE 20.7 mph 32.2 mph N/A   Scattered Clouds
9:55 AM 32.0 °F 18.9 °F 32.0 °F 100% 29.88 in 7.0 mi SE 24.2 mph 32.2 mph N/A   Scattered Clouds
10:15 AM 32.0 °F 19.5 °F 32.0 °F 100% 29.88 in 7.0 mi SE 21.9 mph 31.1 mph N/A   Mostly Cloudy
10:40 AM 32.0 °F 19.2 °F 32.0 °F 100% 29.87 in 7.0 mi SE 23.0 mph 32.2 mph N/A   Mostly Cloudy
11:00 AM 32.0 °F 18.1 °F 32.0 °F 100% 29.87 in 7.0 mi SE 27.6 mph 32.2 mph N/A   Mostly Cloudy
11:45 AM 32.0 °F 17.9 °F 32.0 °F 100% 29.84 in 10.0 mi SE 28.8 mph 38.0 mph N/A   Mostly Cloudy
12:05 PM 33.8 °F 20.5 °F 33.8 °F 100% 29.83 in 10.0 mi SE 27.6 mph 36.8 mph N/A   Overcast
12:25 PM 33.8 °F 21.0 °F 33.8 °F 100% 29.82 in 10.0 mi SE 25.3 mph 34.5 mph N/A   Overcast
12:45 PM 33.8 °F 22.2 °F 33.8 °F 100% 29.80 in 10.0 mi SE 20.7 mph 34.5 mph N/A   Overcast
1:05 PM 33.8 °F 21.3 °F 33.8 °F 100% 29.81 in 10.0 mi SSE 24.2 mph 36.8 mph N/A   Overcast
1:45 PM 33.8 °F 21.0 °F 33.8 °F 100% 29.74 in 1.8 mi SE 25.3 mph 32.2 mph N/A   Overcast
2:10 PM 33.8 °F 20.5 °F 33.8 °F 100% 29.71 in 2.5 mi SE 27.6 mph 38.0 mph N/A   Overcast
2:30 PM 33.8 °F 19.9 °F 33.8 °F 100% 29.67 in 3.0 mi SE 31.1 mph 36.8 mph N/A   Overcast
2:55 PM 33.8 °F 20.5 °F 33.8 °F 100% 29.65 in 4.0 mi SE 27.6 mph 36.8 mph N/A   Overcast
3:15 PM 32.0 °F 17.2 °F 32.0 °F 100% 29.65 in 2.0 mi SE 32.2 mph 40.3 mph N/A   Overcast
3:35 PM 32.0 °F 18.9 °F 32.0 °F 100% 29.64 in 1.8 mi SE 24.2 mph 39.1 mph N/A   Overcast
3:55 PM 33.8 °F 20.3 °F 33.8 °F 100% 29.64 in 1.5 mi SE 28.8 mph 40.3 mph N/A   Overcast
4:20 PM 33.8 °F 20.3 °F 33.8 °F 100% 29.62 in 1.5 mi SE 28.8 mph 38.0 mph N/A   Overcast
4:40 PM 33.8 °F 20.3 °F 33.8 °F 100% 29.60 in 2.5 mi SE 28.8 mph 34.5 mph N/A   Overcast
5:00 PM 33.8 °F 20.3 °F 33.8 °F 100% 29.58 in 3.0 mi SE 28.8 mph 38.0 mph N/A   Overcast
5:20 PM 33.8 °F 20.8 °F 33.8 °F 100% 29.59 in 3.0 mi SSE 26.5 mph 35.7 mph N/A   Overcast
5:45 PM 33.8 °F 20.3 °F 33.8 °F 100% 29.58 in 3.0 mi SE 28.8 mph 38.0 mph N/A   Overcast
6:05 PM 33.8 °F 21.0 °F 33.8 °F 100% 29.57 in 3.0 mi SE 25.3 mph 34.5 mph N/A   Overcast
6:25 PM 33.8 °F 21.3 °F 33.8 °F 100% 29.57 in 2.5 mi SE 24.2 mph 32.2 mph N/A   Overcast
6:45 PM 33.8 °F 21.3 °F 33.8 °F 100% 29.57 in 2.5 mi SE 24.2 mph 35.7 mph N/A   Overcast
7:10 PM 33.8 °F 20.3 °F 33.8 °F 100% 29.53 in 5.0 mi SE 28.8 mph 39.1 mph N/A   Overcast
7:30 PM 33.8 °F 21.3 °F 33.8 °F 100% 29.53 in 5.0 mi SE 24.2 mph 35.7 mph N/A   Overcast
7:50 PM 33.8 °F 21.3 °F 33.8 °F 100% 29.52 in 0.5 mi SE 24.2 mph 33.4 mph N/A Fog Fog
8:10 PM 32.0 °F 19.5 °F 32.0 °F 100% 29.50 in 0.2 mi SE 21.9 mph 29.9 mph N/A Fog Fog
8:35 PM 32.0 °F 20.8 °F 32.0 °F 100% 29.48 in 0.2 mi SE 17.3 mph 29.9 mph N/A Fog Fog
8:55 PM 32.0 °F 18.1 °F 32.0 °F 100% 29.42 in 0.2 mi ESE 27.6 mph 39.1 mph N/A Fog Fog
9:15 PM 32.0 °F 17.9 °F 32.0 °F 100% 29.41 in 0.2 mi SE 28.8 mph 39.1 mph N/A Fog Fog
9:35 PM 32.0 °F 17.4 °F 32.0 °F 100% 29.38 in 0.2 mi SE 31.1 mph 36.8 mph N/A Fog Fog
10:00 PM 32.0 °F 19.8 °F 32.0 °F 100% 29.37 in 0.2 mi SE 20.7 mph 34.5 mph N/A Fog Fog
10:20 PM 32.0 °F 24.8 °F 32.0 °F 100% 29.43 in 0.2 mi South 8.1 mph - N/A Fog Fog
10:40 PM 32.0 °F 22.1 °F 32.0 °F 100% 29.38 in 0.5 mi SE 13.8 mph 17.3 mph N/A Fog Fog
11:00 PM 32.0 °F 22.5 °F 32.0 °F 100% 29.36 in 2.5 mi SE 12.7 mph 17.3 mph N/A   Overcast
11:25 PM 33.8 °F 27.0 °F 33.8 °F 100% 29.39 in 4.0 mi South 8.1 mph - N/A   Overcast
11:45 PM 33.8 °F 27.7 °F 33.8 °F 100% 29.38 in 1.2 mi SSE 6.9 mph - N/A   Overcast